Date String (YYYY-MM-DD hh:mm:ss) UTC,Instrument flags,absolute air pressure of the measurement (hPa),sample flow rate (lpm),inlet stack bypass flow (lpm),air temperature of the measurement (°C),ambient temperature measured by the external sensor (°C),aerosol sample conditioner tube jacket temperature (°C),OPC LED temperature (°C),internal box temperature (°C),relative humidity of the measurement (%),span deviation,mass concentration of particles derived from Lorenz-Mie calculation of OPC scattering (μg/m³),mass concentration of particles derived from Lorenz-Mie calculation of OPC scattering (μg/m³),mass concentration of particles derived from Lorenz-Mie calculation of OPC scattering (μg/m³)
DateTimeUTC,F1_M11,P_M11,Q1_M11,Q2_M11,T1_M11,T2_M11,T3_M11,T4_M11,T5_M11,U1_M11,ZSPAN_M11,X0_M11,X2_M11,X1_M11
2024-02-07 18:00:00,SystemResetWarning,0811.5,5.01,000.00,019.2,018.7,000.0,027.4,020.9,18.7,0000.0,0009.16,0005.14,0004.73
2024-02-07 18:01:00,SystemResetWarning,0811.5,4.99,000.00,019.2,018.7,000.0,027.5,020.9,19.0,0000.0,0009.50,0005.12,0004.73
2024-02-07 18:02:00,SystemResetWarning,0811.5,4.99,000.00,019.2,018.7,000.0,027.5,020.8,19.7,0000.0,0009.76,0005.13,0004.71
2024-02-07 18:03:00,SystemResetWarning,0811.5,5.00,000.00,019.2,018.7,000.0,027.5,020.9,19.6,0000.0,0009.59,0005.06,0004.68
2024-02-07 18:04:00,SystemResetWarning,0811.5,5.01,000.00,019.2,018.7,000.0,027.5,020.9,19.8,0000.0,0008.91,0004.99,0004.64
2024-02-07 18:05:00,SystemResetWarning,0811.5,5.00,000.00,019.2,018.7,000.0,027.5,020.9,20.1,0000.0,0008.27,0004.92,0004.60
2024-02-07 18:06:00,SystemResetWarning,0811.5,4.99,000.00,019.2,018.7,000.0,027.5,020.9,20.2,0000.0,0008.08,0004.90,0004.59
2024-02-07 18:07:00,SystemResetWarning,0811.5,5.00,000.00,019.2,018.8,000.0,027.5,020.9,20.3,0000.0,0008.42,0004.88,0004.57
2024-02-07 18:08:00,SystemResetWarning,0811.5,5.01,000.00,019.2,018.8,000.0,027.5,020.9,20.4,0000.0,0008.65,0004.84,0004.53
2024-02-07 18:09:00,SystemResetWarning,0811.4,5.01,000.00,019.2,018.8,000.0,027.5,020.9,20.5,0000.0,0008.60,0004.80,0004.49
2024-02-07 18:10:00,SystemResetWarning,0811.5,4.99,000.00,019.2,018.8,000.0,027.5,020.9,20.5,0000.0,0008.54,0004.76,0004.45
2024-02-07 18:11:00,SystemResetWarning,0811.4,5.00,000.00,019.3,018.8,000.0,027.5,020.9,20.6,0000.0,0008.75,0004.73,0004.40
2024-02-07 18:12:00,SystemResetWarning,0811.4,5.00,000.00,019.3,018.8,000.0,027.5,020.9,20.4,0000.0,0009.23,0004.70,0004.36
2024-02-07 18:13:00,SystemResetWarning,0811.4,5.00,000.00,019.3,018.8,000.0,027.5,021.0,20.8,0000.0,0008.95,0004.65,0004.34
2024-02-07 18:14:00,SystemResetWarning,0811.4,5.00,000.00,019.3,018.8,000.0,027.5,021.0,20.9,0000.0,0009.97,0004.66,0004.33
2024-02-07 18:15:00,SystemResetWarning,0811.4,5.00,000.00,019.3,018.8,000.0,027.5,021.0,20.7,0000.0,0010.38,0004.69,0004.32
2024-02-07 18:16:00,SystemResetWarning,0811.5,5.00,000.00,019.3,018.8,000.0,027.6,021.0,20.5,0000.0,0010.73,0004.71,0004.30
2024-02-07 18:17:00,SystemResetWarning,0811.5,5.01,000.00,019.3,018.8,000.0,027.6,021.0,20.8,0000.0,0011.12,0004.75,0004.28
2024-02-07 18:18:00,SystemResetWarning,0811.5,5.00,000.00,019.3,018.8,000.0,027.6,021.0,21.3,0000.0,0011.68,0004.78,0004.28
2024-02-07 18:19:00,SystemResetWarning,0811.5,5.00,000.00,019.3,018.8,000.0,027.6,021.0,21.4,0000.0,0012.26,0004.80,0004.26
2024-02-07 18:20:00,SystemResetWarning,0811.6,5.00,000.00,019.3,018.8,000.0,027.6,021.0,21.4,0000.0,0012.47,0004.82,0004.24
2024-02-07 18:21:00,SystemResetWarning,0811.6,5.00,000.00,019.3,018.8,000.0,027.6,021.0,20.9,0000.0,0012.69,0004.88,0004.24
2024-02-07 18:22:00,SystemResetWarning,0811.6,5.00,000.00,019.3,018.8,000.0,027.6,021.0,21.3,0000.0,0013.05,0004.96,0004.25
2024-02-07 18:23:00,SystemResetWarning,0811.5,5.00,000.00,019.3,018.8,000.0,027.6,021.0,21.3,0000.0,0013.74,0005.05,0004.28
2024-02-07 18:24:00,SystemResetWarning,0811.5,5.00,000.00,019.3,018.8,000.0,027.6,021.0,21.3,0000.0,0015.20,0005.15,0004.29
2024-02-07 18:25:00,SystemResetWarning,0811.3,5.00,000.00,019.3,018.8,000.0,027.6,021.0,21.3,0000.0,0015.06,0005.18,0004.30
2024-02-07 18:26:00,SystemResetWarning,0811.3,5.00,000.00,019.3,018.8,000.0,027.6,021.0,21.4,0000.0,0016.63,0005.29,0004.31
2024-02-07 18:27:00,SystemResetWarning,0811.3,5.00,000.00,019.3,018.8,000.0,027.6,021.0,21.3,0000.0,0018.42,0005.38,0004.33
2024-02-07 18:28:00,SystemResetWarning,0811.3,5.00,000.00,019.3,018.8,000.0,027.6,021.0,21.4,0000.0,0019.83,0005.50,0004.35
2024-02-07 18:29:00,SystemResetWarning,0811.2,5.00,000.00,019.3,018.8,000.0,027.6,021.0,21.4,0000.0,0020.93,0005.63,0004.37
2024-02-07 18:30:00,SystemResetWarning,0811.2,5.00,000.00,019.3,018.8,000.0,027.6,021.0,21.5,0000.0,0020.88,0005.75,0004.42
2024-02-07 18:31:00,SystemResetWarning,0811.2,5.00,000.00,019.3,018.8,000.0,027.7,021.0,21.9,0000.0,0021.26,0005.84,0004.47
2024-02-07 18:32:00,SystemResetWarning,0811.2,5.00,000.00,019.3,018.8,000.0,027.7,021.0,22.2,0000.0,0021.81,0005.90,0004.50
2024-02-07 18:33:00,SystemResetWarning,0811.2,5.00,000.00,019.3,018.8,000.0,027.7,021.0,22.5,0001.7,0021.70,0005.90,0004.52
2024-02-07 18:34:00,SystemResetWarning,0811.1,5.00,000.00,019.3,018.7,000.0,027.7,021.0,22.6,0003.2,0020.96,0005.90,0004.53
2024-02-07 18:35:00,SystemResetWarning,0811.1,5.00,000.00,019.3,018.7,000.0,027.7,021.0,22.9,0003.6,0019.65,0005.91,0004.56
2024-02-07 18:36:00,SystemResetWarning,0811.1,5.00,000.00,019.3,018.7,000.0,027.7,021.0,22.8,0003.6,0019.91,0005.98,0004.61
2024-02-07 18:37:00,SystemResetWarning,0811.1,5.00,000.00,019.3,018.7,000.0,027.7,021.0,22.9,0003.5,0019.67,0005.99,0004.66
2024-02-07 18:38:00,SystemResetWarning,0811.1,5.00,000.00,019.3,018.7,000.0,027.7,021.0,22.8,0002.5,0018.48,0006.04,0004.72
2024-02-07 18:39:00,SystemResetWarning,0811.1,4.99,000.00,019.3,018.7,000.0,027.7,021.0,23.1,0004.2,0018.58,0006.09,0004.78
2024-02-07 18:40:00,SystemResetWarning,0811.1,5.00,000.00,019.3,018.7,000.0,027.7,021.0,23.3,0004.0,0017.66,0006.11,0004.84
2024-02-07 18:41:00,SystemResetWarning,0811.0,5.00,000.00,019.3,018.7,000.0,027.7,021.0,23.0,0003.4,0017.61,0006.14,0004.91
2024-02-07 18:42:00,SystemResetWarning,0811.1,5.00,000.00,019.3,018.7,000.0,027.7,021.0,22.3,0003.8,0017.95,0006.24,0005.00
2024-02-07 18:43:00,SystemResetWarning,0811.1,5.00,000.00,019.3,018.8,000.0,027.7,021.0,22.1,0003.2,0019.02,0006.34,0005.10
2024-02-07 18:44:00,SystemResetWarning,0811.0,5.00,000.00,019.3,018.8,000.0,027.7,021.0,22.1,0003.1,0020.39,0006.50,0005.21
2024-02-07 18:45:00,SystemResetWarning,0811.0,5.01,000.00,019.3,018.8,000.0,027.7,021.0,21.3,0001.2,0021.07,0006.66,0005.33
2024-02-07 18:46:00,SystemResetWarning,0811.1,5.00,000.00,019.3,018.8,000.0,027.7,021.0,21.6,0000.0,0021.47,0006.78,0005.42
2024-02-07 18:47:00,SystemResetWarning,0811.0,5.00,000.00,019.3,018.8,000.0,027.7,021.0,22.0,0000.0,0021.06,0006.87,0005.49
2024-02-07 18:48:00,SystemResetWarning,0811.1,4.99,000.00,019.4,018.8,000.0,027.7,021.1,22.2,0000.0,0019.80,0006.93,0005.59
2024-02-07 18:49:00,SystemResetWarning,0811.1,5.00,000.00,019.4,018.8,000.0,027.7,021.1,22.2,0001.2,0020.01,0006.96,0005.70
2024-02-07 18:50:00,SystemResetWarning,0811.1,5.00,000.00,019.4,018.8,000.0,027.7,021.0,22.3,0001.6,0018.96,0006.96,0005.80
2024-02-07 18:51:00,SystemResetWarning,0811.1,5.00,000.00,019.4,018.8,000.0,027.7,021.0,22.4,0000.8,0018.49,0007.01,0005.91
2024-02-07 18:52:00,SystemResetWarning,0811.1,4.99,000.00,019.4,018.8,000.0,027.7,021.0,22.7,0001.9,0018.17,0007.07,0006.00
2024-02-07 18:53:00,SystemResetWarning,0811.1,5.00,000.00,019.3,018.8,000.0,027.7,021.0,22.8,0003.2,0017.56,0007.09,0006.08
2024-02-07 18:54:00,SystemResetWarning,0811.0,4.99,000.00,019.3,018.7,000.0,027.7,021.0,22.7,0003.1,0016.55,0007.15,0006.16
2024-02-07 18:55:00,SystemResetWarning,0811.1,5.01,000.00,019.3,018.7,000.0,027.7,020.9,23.2,0003.2,0015.77,0007.23,0006.25
2024-02-07 18:56:00,SystemResetWarning,0811.1,5.00,000.00,019.3,018.7,000.0,027.7,020.9,23.5,0003.3,0015.75,0007.33,0006.35
2024-02-07 18:57:00,SystemResetWarning,0811.1,5.00,000.00,019.3,018.7,000.0,027.7,020.9,23.5,0003.0,0015.66,0007.42,0006.45
2024-02-07 18:58:00,SystemResetWarning,0811.2,5.00,000.00,019.3,018.7,000.0,027.7,020.9,23.8,0002.8,0016.15,0007.54,0006.57
2024-02-07 18:59:00,SystemResetWarning,0811.2,5.01,000.00,019.3,018.7,000.0,027.7,020.9,23.7,0003.0,0016.82,0007.69,0006.64
